Home > Weather > Sfax > Past weeks

Flag for Tunisia Weather for the Past 2 Weeks in Sfax, Tunisia

Now
73 °F

Passing clouds.


Feels Like: 77 °F
Forecast: 61 / 69 °F
Wind: 15 mph from East

Location: Sfax El-Maou

Current Time: Apr 30, 2016 at 2:19:51 PM

Latest Report: Apr 30, 2016 at 2:00 PM


Visibility: N/A

Pressure: 29.92 "Hg

Humidity: 50%

Dew Point: 54 °F

Location of SfaxLocation

Historic Weather in Sfax — Graph

°F

Sfax Temperature Yesterday

Maximum temperature yesterday: 81 °F (at 1:00 PM)
Minimum temperature yesterday: 64 °F (at 1:00 AM)
Average temperature yesterday: 70 °F

High & Low Weather Summary for the Past Weeks

 TemperatureHumidityPressure
High84 °F (Apr 18, 3:00 PM)100% (Apr 17, 5:00 AM)30.15 "Hg (Apr 17, 5:00 AM)
Low54 °F (Apr 26, 5:00 AM)26% (Apr 19, 4:00 PM)29.68 "Hg (Apr 28, 4:00 PM)
Average68 °F65%29.94 "Hg
* Reported Apr 15 1:00 PM — Apr 30 1:00 PM, Sfax, Weather by CustomWeather, © 2016

Note: Actual official high and low records may vary slightly from our data, if they occured in-between our weather recording intervals... More about our weather records

Advertising

Sfax Weather History for the Previous 24 Hours

Scroll right to see more
 ConditionsComfort  
Time TempWeatherWind HumidityBarometerVisibility
1:00 PM
Sat, Apr 30
73 °FSunny.14 mph53%29.92 "Hg10 mi
12:00 PM73 °FPassing clouds.13 mph57%29.95 "HgN/A
11:00 AM72 °FPassing clouds.12 mph65%30.01 "HgN/A
10:00 AM72 °FScattered clouds.8 mph61%30.01 "HgN/A
9:00 AM70 °FScattered clouds.9 mph69%30.01 "HgN/A
8:00 AM68 °FScattered clouds.9 mph73%29.98 "HgN/A
7:00 AM66 °FPassing clouds.5 mph78%30.01 "HgN/A
6:00 AM63 °FPassing clouds.7 mph83%30.01 "HgN/A
5:00 AM63 °FPassing clouds.8 mph83%29.98 "HgN/A
4:00 AM63 °FPassing clouds.6 mph83%29.98 "HgN/A
3:00 AM63 °FClear.10 mph77%29.98 "Hg10 mi
2:00 AM64 °FPassing clouds.7 mph73%30.01 "HgN/A
1:00 AM64 °FClear.7 mph73%30.01 "Hg10 mi
12:00 AM64 °FClear.9 mph78%30.01 "Hg10 mi
11:00 PM
Fri, Apr 29
66 °FClear.10 mph68%30.01 "Hg10 mi
10:00 PM66 °FClear.10 mph68%30.01 "Hg10 mi
9:00 PM66 °FClear.13 mph68%30.01 "Hg10 mi
8:00 PM68 °FClear.12 mph64%29.98 "Hg10 mi
7:00 PM68 °FSunny.12 mph69%29.98 "Hg10 mi
6:00 PM72 °FSunny.14 mph61%29.95 "Hg10 mi
5:00 PM73 °FSunny.15 mph57%29.95 "Hg10 mi
4:00 PM75 °FPassing clouds.14 mph54%29.95 "HgN/A
3:00 PM79 °FPassing clouds.16 mph39%29.95 "HgN/A
2:00 PM81 °FSunny.15 mph34%29.95 "Hg10 mi
Weather by CustomWeather, © 2016

See weather overviewHow to use our weather pages